Simultaneous Nadir Overpasses (SNOs) Predictions

Prediction of SNOs near equator between AQUA and NPP Satellite Orbit:

Table of predicted SNOs near equator for the next 14.0 days since TLE Epoch: 2/7/2020
Index Date (AQUA) Time (AQUA) AQUA Lat,Lon Date (NPP) Time (NPP) NPP Lat,Lon Distance(km) Time Diff (sec)
1 02/10/2020 08:41:53 -4.50,-107.21 02/10/2020 08:32:22 -4.40,-107.59 43.19 571
2 02/10/2020 09:30:09 -0.05, 61.38 02/10/2020 09:21:53 -0.20, 60.74 73.22 496
3 02/13/2020 00:16:04 29.95,-164.86 02/13/2020 00:06:04 30.59,-165.52 95.60 600
4 02/13/2020 00:58:00 -3.03, 8.97 02/13/2020 00:48:53 -2.91, 8.51 53.35 547
5 02/13/2020 01:46:16 -1.51, 177.56 02/13/2020 01:38:24 -1.68, 176.83 83.35 472
6 02/15/2020 16:26:00 6.12, -43.47 02/15/2020 16:16:02 6.06, -43.76 33.20 598
7 02/15/2020 17:14:06 -1.57, 125.16 02/15/2020 17:05:23 -1.43, 124.61 63.54 523
8 02/15/2020 18:02:21 -3.02, -66.24 02/15/2020 17:54:54 -3.17, -67.07 93.43 447
9 02/18/2020 08:42:06 4.67, 72.72 02/18/2020 08:32:32 4.58, 72.34 43.43 574
10 02/18/2020 09:30:12 -0.05,-118.64 02/18/2020 09:21:54 0.05,-119.30 73.73 498
11 02/21/2020 00:58:13 3.22,-171.10 02/21/2020 00:49:03 3.10,-171.57 53.75 550
12 02/21/2020 01:46:19 1.40, -2.46 02/21/2020 01:38:25 1.53, -3.20 83.83 474




NCC Satellite Simultaneous Nadir Overpasses (SNOs) Prediction Service
